Time,TemperatureF,DewpointF,PressureIn,WindDirection,WindDirectionDegrees,WindSpeedMPH,WindSpeedGustMPH,Humidity,HourlyPrecipIn,Conditions,Clouds,dailyrainin,SoftwareType,DateUTC
2013-04-21 00:02:00,33.0,25.0,30.43,SSE,150,4.0,8.0,73,0.00,,,0.00,,2013-04-21 05:02:00,
2013-04-21 00:12:00,33.0,25.0,30.43,SSE,150,4.0,8.0,73,0.00,,,0.00,,2013-04-21 05:12:00,
2013-04-21 00:22:00,33.0,26.0,30.43,ESE,118,7.0,10.0,74,0.00,,,0.00,,2013-04-21 05:22:00,
2013-04-21 00:32:00,32.0,25.0,30.44,SE,127,4.0,8.0,76,0.00,,,0.00,,2013-04-21 05:32:00,
2013-04-21 00:42:00,32.0,25.0,30.44,SE,127,4.0,8.0,76,0.00,,,0.00,,2013-04-21 05:42:00,
2013-04-21 00:52:00,32.0,25.0,30.44,SSE,149,7.0,9.0,76,0.00,,,0.00,,2013-04-21 05:52:00,
2013-04-21 01:01:00,32.0,26.0,30.44,SE,136,5.0,9.0,77,0.00,,,0.00,,2013-04-21 06:01:00,
2013-04-21 01:12:00,32.0,26.0,30.44,SE,136,5.0,9.0,77,0.00,,,0.00,,2013-04-21 06:12:00,
2013-04-21 01:21:00,31.0,25.0,30.44,SE,126,3.0,7.0,78,0.00,,,0.00,,2013-04-21 06:21:00,
2013-04-21 01:32:00,31.0,25.0,30.45,SE,130,4.0,7.0,78,0.00,,,0.00,,2013-04-21 06:32:00,
2013-04-21 01:42:00,31.0,25.0,30.45,SE,130,4.0,7.0,78,0.00,,,0.00,,2013-04-21 06:42:00,
2013-04-21 01:52:00,31.0,25.0,30.45,SE,134,4.0,6.0,79,0.00,,,0.00,,2013-04-21 06:52:00,
2013-04-21 02:01:00,31.0,25.0,30.45,SE,129,2.0,6.0,79,0.00,,,0.00,,2013-04-21 07:01:00,
2013-04-21 02:12:00,31.0,25.0,30.45,ESE,121,4.0,7.0,79,0.00,,,0.00,,2013-04-21 07:12:00,
2013-04-21 02:21:00,31.0,25.0,30.45,ESE,121,4.0,7.0,79,0.00,,,0.00,,2013-04-21 07:21:00,
2013-04-21 02:31:00,31.0,25.0,30.45,SE,138,4.0,7.0,79,0.00,,,0.00,,2013-04-21 07:31:00,
2013-04-21 02:42:00,31.0,25.0,30.45,SE,138,4.0,7.0,79,0.00,,,0.00,,2013-04-21 07:42:00,
2013-04-21 02:52:00,31.0,25.0,30.45,SE,128,4.0,9.0,78,0.00,,,0.00,,2013-04-21 07:52:00,
2013-04-21 03:01:00,31.0,25.0,30.46,SE,134,6.0,8.0,78,0.00,,,0.00,,2013-04-21 08:01:00,
2013-04-21 03:12:00,31.0,25.0,30.46,SE,134,6.0,8.0,78,0.00,,,0.00,,2013-04-21 08:12:00,
2013-04-21 03:21:00,31.0,25.0,30.46,SE,141,6.0,9.0,78,0.00,,,0.00,,2013-04-21 08:21:00,
2013-04-21 03:32:00,31.0,25.0,30.47,SE,136,7.0,9.0,79,0.00,,,0.00,,2013-04-21 08:32:00,
2013-04-21 03:41:00,31.0,25.0,30.47,SE,136,7.0,9.0,79,0.00,,,0.00,,2013-04-21 08:41:00,
2013-04-21 03:52:00,31.0,25.0,30.47,SE,142,7.0,9.0,79,0.00,,,0.00,,2013-04-21 08:52:00,
2013-04-21 04:01:00,32.0,26.0,30.47,SE,128,5.0,9.0,79,0.00,,,0.00,,2013-04-21 09:01:00,
2013-04-21 04:12:00,32.0,26.0,30.47,SE,128,5.0,9.0,79,0.00,,,0.00,,2013-04-21 09:12:00,
2013-04-21 04:21:00,32.0,26.0,30.47,SE,128,5.0,10.0,78,0.00,,,0.00,,2013-04-21 09:21:00,
2013-04-21 04:32:00,32.0,26.0,30.47,ESE,120,8.0,9.0,78,0.00,,,0.00,,2013-04-21 09:32:00,
2013-04-21 04:43:00,32.0,26.0,30.47,ESE,120,8.0,9.0,78,0.00,,,0.00,,2013-04-21 09:43:00,
2013-04-21 04:53:00,32.0,26.0,30.47,ESE,117,8.0,9.0,78,0.00,,,0.00,,2013-04-21 09:53:00,
2013-04-21 05:02:00,32.0,26.0,30.48,SE,134,4.0,9.0,78,0.00,,,0.00,,2013-04-21 10:02:00,
2013-04-21 05:12:00,32.0,26.0,30.48,SE,134,4.0,9.0,78,0.00,,,0.00,,2013-04-21 10:12:00,
2013-04-21 05:22:00,32.0,26.0,30.48,ESE,114,5.0,9.0,77,0.00,,,0.00,,2013-04-21 10:22:00,
2013-04-21 05:32:00,32.0,26.0,30.48,SE,144,7.0,10.0,78,0.00,,,0.00,,2013-04-21 10:32:00,
2013-04-21 05:42:00,32.0,26.0,30.48,SE,144,7.0,10.0,78,0.00,,,0.00,,2013-04-21 10:42:00,
2013-04-21 05:52:00,32.0,26.0,30.48,SE,130,6.0,13.0,78,0.00,,,0.00,,2013-04-21 10:52:00,
2013-04-21 06:02:00,32.0,26.0,30.49,ESE,113,8.0,11.0,78,0.00,,,0.00,,2013-04-21 11:02:00,
2013-04-21 06:12:00,32.0,26.0,30.49,ESE,113,8.0,11.0,78,0.00,,,0.00,,2013-04-21 11:12:00,
2013-04-21 06:22:00,32.0,26.0,30.49,SE,136,6.0,12.0,78,0.00,,,0.00,,2013-04-21 11:22:00,
2013-04-21 06:34:00,32.0,26.0,30.50,ESE,121,7.0,9.0,77,0.00,,,0.00,,2013-04-21 11:34:00,
2013-04-21 06:42:00,32.0,26.0,30.50,ESE,121,7.0,9.0,77,0.00,,,0.00,,2013-04-21 11:42:00,
2013-04-21 06:52:00,33.0,26.0,30.50,SSE,152,5.0,11.0,76,0.00,,,0.00,,2013-04-21 11:52:00,
2013-04-21 07:02:00,33.0,26.0,30.52,ESE,113,5.0,9.0,76,0.00,,,0.00,,2013-04-21 12:02:00,
2013-04-21 07:12:00,33.0,26.0,30.52,ESE,113,5.0,9.0,76,0.00,,,0.00,,2013-04-21 12:12:00,
2013-04-21 07:22:00,33.0,26.0,30.53,ESE,114,5.0,10.0,75,0.00,,,0.00,,2013-04-21 12:22:00,
2013-04-21 07:32:00,33.0,26.0,30.53,ESE,122,4.0,10.0,75,0.00,,,0.00,,2013-04-21 12:32:00,
2013-04-21 07:42:00,33.0,26.0,30.53,ESE,122,4.0,10.0,75,0.00,,,0.00,,2013-04-21 12:42:00,
2013-04-21 07:52:00,34.0,27.0,30.54,SE,146,5.0,12.0,74,0.00,,,0.00,,2013-04-21 12:52:00,
2013-04-21 08:01:00,34.0,26.0,30.54,ESE,119,5.0,9.0,73,0.00,,,0.00,,2013-04-21 13:01:00,
2013-04-21 08:11:00,34.0,26.0,30.54,ESE,119,5.0,9.0,73,0.00,,,0.00,,2013-04-21 13:11:00,
2013-04-21 08:21:00,34.0,26.0,30.54,SE,139,7.0,9.0,72,0.00,,,0.00,,2013-04-21 13:21:00,
2013-04-21 08:32:00,35.0,27.0,30.53,SE,136,7.0,11.0,71,0.00,,,0.00,,2013-04-21 13:32:00,
2013-04-21 08:42:00,35.0,27.0,30.53,SE,136,7.0,11.0,71,0.00,,,0.00,,2013-04-21 13:42:00,
2013-04-21 08:52:00,35.0,27.0,30.53,ESE,115,9.0,12.0,71,0.00,,,0.00,,2013-04-21 13:52:00,
2013-04-21 09:02:00,35.0,27.0,30.53,ESE,107,9.0,12.0,71,0.00,,,0.00,,2013-04-21 14:02:00,
2013-04-21 09:11:00,35.0,27.0,30.53,ESE,107,9.0,12.0,71,0.00,,,0.00,,2013-04-21 14:11:00,
2013-04-21 09:21:00,35.0,26.0,30.53,ESE,105,9.0,12.0,68,0.00,,,0.00,,2013-04-21 14:21:00,
2013-04-21 09:32:00,36.0,26.0,30.53,SE,126,5.0,14.0,66,0.00,,,0.00,,2013-04-21 14:32:00,
2013-04-21 09:42:00,36.0,26.0,30.53,SE,126,5.0,14.0,66,0.00,,,0.00,,2013-04-21 14:42:00,
2013-04-21 09:52:00,36.0,25.0,30.53,ESE,110,8.0,15.0,64,0.00,,,0.00,,2013-04-21 14:52:00,
2013-04-21 10:02:00,36.0,25.0,30.53,SE,143,11.0,12.0,63,0.00,,,0.00,,2013-04-21 15:02:00,
2013-04-21 10:11:00,36.0,25.0,30.53,SE,143,11.0,12.0,63,0.00,,,0.00,,2013-04-21 15:11:00,
2013-04-21 10:22:00,37.0,25.0,30.53,SSE,166,10.0,14.0,62,0.00,,,0.00,,2013-04-21 15:22:00,
2013-04-21 10:33:00,36.0,26.0,30.53,SE,141,9.0,18.0,67,0.00,,,0.00,,2013-04-21 15:33:00,
2013-04-21 10:42:00,36.0,26.0,30.53,SE,141,9.0,18.0,67,0.00,,,0.00,,2013-04-21 15:42:00,
2013-04-21 10:53:00,37.0,27.0,30.53,SSE,164,11.0,21.0,66,0.00,,,0.00,,2013-04-21 15:53:00,
2013-04-21 11:03:00,37.0,27.0,30.53,SSE,147,10.0,14.0,67,0.00,,,0.00,,2013-04-21 16:03:00,
2013-04-21 11:12:00,37.0,27.0,30.53,SSE,147,10.0,14.0,67,0.00,,,0.00,,2013-04-21 16:12:00,
2013-04-21 11:22:00,35.0,30.0,30.52,SE,133,7.0,16.0,82,0.00,,,0.00,,2013-04-21 16:22:00,
2013-04-21 11:33:00,35.0,30.0,30.51,ESE,121,8.0,13.0,83,0.00,,,0.00,,2013-04-21 16:33:00,
2013-04-21 11:42:00,35.0,30.0,30.51,ESE,121,8.0,13.0,83,0.00,,,0.00,,2013-04-21 16:42:00,
2013-04-21 11:52:00,35.0,31.0,30.50,SE,128,2.0,12.0,85,0.00,,,0.00,,2013-04-21 16:52:00,
2013-04-21 12:02:00,36.0,31.0,30.48,ESE,122,3.0,8.0,81,0.00,,,0.00,,2013-04-21 17:02:00,
2013-04-21 12:12:00,36.0,31.0,30.48,ESE,122,3.0,8.0,81,0.00,,,0.00,,2013-04-21 17:12:00,
2013-04-21 12:22:00,39.0,29.0,30.47,South,184,9.0,12.0,68,0.00,,,0.00,,2013-04-21 17:22:00,
2013-04-21 12:32:00,41.0,28.0,30.46,SE,129,11.0,16.0,60,0.00,,,0.00,,2013-04-21 17:32:00,
2013-04-21 12:42:00,41.0,28.0,30.46,SE,129,11.0,16.0,60,0.00,,,0.00,,2013-04-21 17:42:00,
2013-04-21 12:52:00,42.0,28.0,30.45,ESE,117,5.0,15.0,58,0.00,,,0.00,,2013-04-21 17:52:00,
2013-04-21 13:02:00,42.0,27.0,30.44,SSE,151,9.0,18.0,56,0.00,,,0.00,,2013-04-21 18:02:00,
2013-04-21 13:11:00,42.0,27.0,30.44,SSE,151,9.0,18.0,56,0.00,,,0.00,,2013-04-21 18:11:00,
2013-04-21 13:22:00,43.0,28.0,30.43,SE,130,4.0,16.0,56,0.00,,,0.00,,2013-04-21 18:22:00,
2013-04-21 13:32:00,45.0,28.0,30.42,SE,140,11.0,19.0,52,0.00,,,0.00,,2013-04-21 18:32:00,
2013-04-21 13:42:00,45.0,28.0,30.42,SE,140,11.0,19.0,52,0.00,,,0.00,,2013-04-21 18:42:00,
2013-04-21 13:52:00,45.0,29.0,30.41,SE,142,6.0,20.0,53,0.00,,,0.00,,2013-04-21 18:52:00,
2013-04-21 14:02:00,46.0,29.0,30.40,ESE,113,15.0,18.0,51,0.00,,,0.00,,2013-04-21 19:02:00,
2013-04-21 14:12:00,46.0,29.0,30.40,ESE,113,15.0,18.0,51,0.00,,,0.00,,2013-04-21 19:12:00,
2013-04-21 14:21:00,47.0,30.0,30.40,ESE,111,8.0,19.0,51,0.00,,,0.00,,2013-04-21 19:21:00,
2013-04-21 14:32:00,47.0,28.0,30.40,SSE,158,8.0,19.0,47,0.00,,,0.00,,2013-04-21 19:32:00,
2013-04-21 14:42:00,47.0,28.0,30.40,SSE,158,8.0,19.0,47,0.00,,,0.00,,2013-04-21 19:42:00,
2013-04-21 14:52:00,47.0,29.0,30.40,SSE,164,8.0,19.0,49,0.00,,,0.00,,2013-04-21 19:52:00,
2013-04-21 15:02:00,48.0,29.0,30.39,SE,144,7.0,14.0,48,0.00,,,0.00,,2013-04-21 20:02:00,
2013-04-21 15:11:00,48.0,29.0,30.39,SE,144,7.0,14.0,48,0.00,,,0.00,,2013-04-21 20:11:00,
2013-04-21 15:22:00,48.0,28.0,30.37,SE,143,9.0,18.0,46,0.00,,,0.00,,2013-04-21 20:22:00,
2013-04-21 15:32:00,49.0,30.0,30.37,SSE,153,16.0,19.0,47,0.00,,,0.00,,2013-04-21 20:32:00,
2013-04-21 15:42:00,49.0,30.0,30.37,SSE,153,16.0,19.0,47,0.00,,,0.00,,2013-04-21 20:42:00,
2013-04-21 15:52:00,50.0,30.0,30.37,South,185,16.0,18.0,46,0.00,,,0.00,,2013-04-21 20:52:00,
2013-04-21 16:02:00,49.0,29.0,30.35,SE,132,5.0,18.0,45,0.00,,,0.00,,2013-04-21 21:02:00,
2013-04-21 16:12:00,49.0,29.0,30.35,SE,132,5.0,18.0,45,0.00,,,0.00,,2013-04-21 21:12:00,
2013-04-21 16:21:00,50.0,29.0,30.35,SE,140,11.0,17.0,45,0.00,,,0.00,,2013-04-21 21:21:00,
2013-04-21 16:33:00,49.0,30.0,30.34,SE,145,10.0,18.0,47,0.00,,,0.00,,2013-04-21 21:33:00,
2013-04-21 16:43:00,49.0,30.0,30.34,SE,145,10.0,18.0,47,0.00,,,0.00,,2013-04-21 21:43:00,
2013-04-21 16:53:00,50.0,31.0,30.34,South,169,7.0,18.0,48,0.00,,,0.00,,2013-04-21 21:53:00,
2013-04-21 17:02:00,50.0,31.0,30.33,SSE,163,8.0,18.0,48,0.00,,,0.00,,2013-04-21 22:02:00,
2013-04-21 17:12:00,50.0,31.0,30.33,SSE,163,8.0,18.0,48,0.00,,,0.00,,2013-04-21 22:12:00,
2013-04-21 17:22:00,50.0,32.0,30.33,SE,144,10.0,18.0,50,0.00,,,0.00,,2013-04-21 22:22:00,
2013-04-21 17:33:00,50.0,32.0,30.32,SE,132,7.0,17.0,49,0.00,,,0.00,,2013-04-21 22:33:00,
2013-04-21 17:43:00,50.0,32.0,30.32,SE,132,7.0,17.0,49,0.00,,,0.00,,2013-04-21 22:43:00,
2013-04-21 17:52:00,50.0,32.0,30.32,SE,146,10.0,14.0,49,0.00,,,0.00,,2013-04-21 22:52:00,
2013-04-21 18:02:00,51.0,33.0,30.31,SE,138,16.0,17.0,49,0.00,,,0.00,,2013-04-21 23:02:00,
2013-04-21 18:12:00,51.0,33.0,30.31,SE,138,16.0,17.0,49,0.00,,,0.00,,2013-04-21 23:12:00,
2013-04-21 18:22:00,51.0,34.0,30.31,SE,128,11.0,16.0,52,0.00,,,0.00,,2013-04-21 23:22:00,
2013-04-21 18:32:00,50.0,34.0,30.30,SE,133,8.0,17.0,53,0.00,,,0.00,,2013-04-21 23:32:00,
2013-04-21 18:42:00,50.0,34.0,30.30,SE,133,8.0,17.0,53,0.00,,,0.00,,2013-04-21 23:42:00,
2013-04-21 18:52:00,50.0,34.0,30.30,SSE,158,4.0,12.0,54,0.00,,,0.00,,2013-04-21 23:52:00,
2013-04-21 19:01:00,50.0,35.0,30.29,SSE,149,8.0,14.0,56,0.00,,,0.00,,2013-04-22 00:01:00,
2013-04-21 19:11:00,50.0,35.0,30.29,SSE,149,8.0,14.0,56,0.00,,,0.00,,2013-04-22 00:11:00,
2013-04-21 19:21:00,49.0,34.0,30.29,South,170,6.0,13.0,57,0.00,,,0.00,,2013-04-22 00:21:00,
2013-04-21 19:32:00,49.0,34.0,30.29,SSE,147,6.0,13.0,57,0.00,,,0.00,,2013-04-22 00:32:00,
2013-04-21 19:42:00,49.0,34.0,30.29,SSE,147,6.0,13.0,57,0.00,,,0.00,,2013-04-22 00:42:00,
2013-04-21 19:51:00,47.0,34.0,30.29,SE,146,6.0,9.0,60,0.00,,,0.00,,2013-04-22 00:51:00,
2013-04-21 20:01:00,46.0,33.0,30.29,ESE,115,7.0,13.0,60,0.00,,,0.00,,2013-04-22 01:01:00,
2013-04-21 20:12:00,46.0,33.0,30.29,ESE,115,7.0,13.0,60,0.00,,,0.00,,2013-04-22 01:12:00,
2013-04-21 20:21:00,46.0,34.0,30.29,East,100,8.0,10.0,62,0.00,,,0.00,,2013-04-22 01:21:00,
2013-04-21 20:32:00,45.0,33.0,30.29,SE,144,5.0,11.0,62,0.00,,,0.00,,2013-04-22 01:32:00,
2013-04-21 20:41:00,45.0,33.0,30.29,SE,144,5.0,11.0,62,0.00,,,0.00,,2013-04-22 01:41:00,
2013-04-21 20:52:00,45.0,33.0,30.29,SSE,148,6.0,12.0,62,0.00,,,0.00,,2013-04-22 01:52:00,
2013-04-21 21:02:00,45.0,33.0,30.29,SSE,158,7.0,9.0,62,0.00,,,0.00,,2013-04-22 02:02:00,
2013-04-21 21:11:00,45.0,33.0,30.29,SSE,158,7.0,9.0,62,0.00,,,0.00,,2013-04-22 02:11:00,
2013-04-21 21:21:00,45.0,33.0,30.29,SE,132,4.0,14.0,62,0.00,,,0.00,,2013-04-22 02:21:00,
2013-04-21 21:32:00,44.0,32.0,30.29,SE,140,4.0,10.0,63,0.00,,,0.00,,2013-04-22 02:32:00,
2013-04-21 21:42:00,44.0,32.0,30.29,SE,140,4.0,10.0,63,0.00,,,0.00,,2013-04-22 02:42:00,
2013-04-21 21:51:00,44.0,32.0,30.29,SE,144,6.0,10.0,63,0.00,,,0.00,,2013-04-22 02:51:00,
2013-04-21 22:02:00,44.0,32.0,30.29,ESE,115,5.0,10.0,63,0.00,,,0.00,,2013-04-22 03:02:00,
2013-04-21 22:11:00,44.0,32.0,30.29,ESE,115,5.0,10.0,63,0.00,,,0.00,,2013-04-22 03:11:00,
2013-04-21 22:22:00,44.0,33.0,30.29,SSE,151,3.0,13.0,64,0.00,,,0.00,,2013-04-22 03:22:00,
2013-04-21 22:33:00,44.0,33.0,30.30,SE,127,3.0,8.0,65,0.00,,,0.00,,2013-04-22 03:33:00,
2013-04-21 22:42:00,44.0,33.0,30.30,SE,127,3.0,8.0,65,0.00,,,0.00,,2013-04-22 03:42:00,
2013-04-21 22:52:00,44.0,33.0,30.30,SE,137,5.0,9.0,66,0.00,,,0.00,,2013-04-22 03:52:00,
2013-04-21 23:03:00,44.0,34.0,30.30,South,173,4.0,10.0,67,0.00,,,0.00,,2013-04-22 04:03:00,
2013-04-21 23:12:00,44.0,34.0,30.30,South,173,4.0,10.0,67,0.00,,,0.00,,2013-04-22 04:12:00,
2013-04-21 23:23:00,44.0,34.0,30.29,SSE,148,4.0,9.0,68,0.00,,,0.00,,2013-04-22 04:23:00,
2013-04-21 23:32:00,44.0,35.0,30.29,SE,146,7.0,12.0,70,0.00,,,0.00,,2013-04-22 04:32:00,
2013-04-21 23:43:00,44.0,35.0,30.29,SE,146,7.0,12.0,70,0.00,,,0.00,,2013-04-22 04:43:00,
2013-04-21 23:52:00,45.0,35.0,30.29,South,181,5.0,10.0,69,0.00,,,0.00,,2013-04-22 04:52:00,